DW6145 Weather Reports


time (UTC)temp
C
wind
direction
speed
KPH
gust
KPH
rain 1hr
cm
rain 24hr
cm
rain mn
cm
humidity
%
barometer
mb
20260906064705 25 0 0.0 0.0 0.00 0.00 0.00 53 468.2
20260906063703 25 63 0.0 0.0 0.00 0.00 0.00 55 488.2
20260906062703 25 0 0.0 0.0 0.00 0.00 0.00 55 622.9
20260906061658 25 0 0.0 0.0 0.00 0.00 0.00 57 439.1
20260906060658 25 34 0.0 0.0 0.00 0.00 0.00 57 479.5
20260906055659 24 92 0.0 0.0 0.00 0.00 0.00 58 440.2
20260906054655 24 33 0.0 0.0 0.00 0.00 0.00 58 468.0
20260906053655 24 0 0.0 0.0 0.00 0.00 0.00 59 521.4
20260906052656 24 59 9.7 19.3 0.00 0.00 0.00 59 507.7
20260906051651 24 0 9.7 20.9 0.00 0.00 0.00 60 518.4
20260906050650 24 50 11.3 24.1 0.00 0.00 0.00 60 540.3
20260906045651 24 50 12.9 25.7 0.00 0.00 0.00 60 468.4
20260906045131 24 0 14.5 25.7 0.00 0.00 0.00 61 439.6
20260906043646 23 0 11.3 24.1 0.00 0.00 0.00 61 513.7
20260906042647 23 0 11.3 20.9 0.00 0.00 0.00 62 471.4
20260906042127 23 0 11.3 20.9 0.00 0.00 0.00 61 456.4
20260906040643 23 0 8.0 19.3 0.00 0.00 0.00 62 471.2
20260906040128 23 51 3.2 14.5 0.00 0.00 0.00 64 449.2
20260906034637 23 50 0.0 4.8 0.00 0.00 0.00 66 487.1
20260906033634 23 50 1.6 14.5 0.00 0.00 0.00 61 476.6
20260906032632 23 0 3.2 16.1 0.00 0.00 0.00 61 478.1
20260906031634 24 55 1.6 11.3 0.00 0.00 0.00 61 602.9
20260906030631 24 55 3.2 11.3 0.00 0.00 0.00 60 472.2
20260906025633 24 56 4.8 12.9 0.00 0.00 0.00 60 484.9
20260906024629 24 56 4.8 14.5 0.00 0.00 0.00 60 468.8
20260906023631 24 0 3.2 12.9 0.00 0.00 0.00 60 482.9
20260906022631 24 0 3.2 12.9 0.00 0.00 0.00 61 502.9
20260906021625 24 0 3.2 14.5 0.00 0.00 0.00 61 466.0
20260906020623 24 0 6.4 14.5 0.00 0.00 0.00 61 560.1
20260906020555 24 0 4.8 12.9 0.00 0.00 0.00 62 500.8
20260906014621 24 0 3.2 16.1 0.00 0.00 0.00 61 470.1
20260906013621 25 0 6.4 19.3 0.00 0.00 0.00 61 463.9
20260906013110 25 0 12.9 22.5 0.00 0.00 0.00 60 580.0
20260906011614 25 0 11.3 22.5 0.00 0.00 0.00 59 508.8
20260906010615 25 0 12.9 22.5 0.00 0.00 0.00 59 842.3
20260906005622 25 99 9.7 19.3 0.00 0.00 0.00 58 449.9
20260906004613 25 0 6.4 16.1 0.00 0.00 0.00 58 630.2
20260906003612 25 59 8.0 20.9 0.00 0.00 0.00 58 504.9
20260906003548 25 0 6.4 14.5 0.00 0.00 0.00 57 556.9
20260906001614 25 54 6.4 14.5 0.00 0.00 0.00 57 528.9
20260906001053 25 57 1.6 11.3 0.00 0.00 0.00 58 1250.3
20260905235608 25 53 1.6 6.4 0.00 0.00 0.00 59 929.0
20260905234609 25 53 0.0 9.7 0.00 0.00 0.00 59 814.6
20260905233605 26 53 1.6 9.7 0.00 0.00 0.00 56 961.8
20260905233049 25 55 3.2 11.3 0.00 0.00 0.00 56 969.6
20260905231603 25 57 3.2 11.3 0.00 0.00 0.00 55 456.2
20260905230605 26 57 4.8 14.5 0.00 0.00 0.00 55 524.1
20260905225605 26 55 6.4 14.5 0.00 0.00 0.00 55 494.3
20260905224603 26 56 3.2 16.1 0.00 0.00 0.00 55 474.3
20260905223605 26 55 4.8 14.5 0.00 0.00 0.00 54 589.9
20260905222603 26 0 6.4 14.5 0.00 0.00 0.00 54 498.5
20260905222039 26 0 6.4 17.7 0.00 0.00 0.00 55 406.2
20260905221049 26 59 6.4 20.9 0.00 0.00 0.00 55 919.9
20260905215605 26 0 6.4 16.1 0.00 0.00 0.00 55 486.7
20260905214606 26 0 8.0 17.7 0.00 0.00 0.00 54 769.2
20260905213603 26 0 9.7 20.9 0.00 0.00 0.00 54 852.6
20260905212604 26 0 9.7 17.7 0.00 0.00 0.00 55 883.5
20260905211603 26 0 9.7 17.7 0.00 0.00 0.00 55 468.0
20260905210603 26 0 6.4 16.1 0.00 0.00 0.00 55 456.5
20260905205606 26 0 4.8 12.9 0.00 0.00 0.00 56 407.7
20260905204605 26 0 4.8 14.5 0.00 0.00 0.00 56 498.1
20260905203600 26 0 4.8 9.7 0.00 0.00 0.00 56 460.6
20260905202600 26 0 4.8 12.9 0.00 0.00 0.00 57 426.2
20260905201602 26 0 6.4 14.5 0.00 0.00 0.00 58 745.7
20260905201029 26 0 4.8 9.7 0.00 0.00 0.00 59 559.9
20260905195552 26 0 3.2 12.9 0.00 0.00 0.00 60 503.7
20260905194553 26 0 1.6 9.7 0.00 0.00 0.00 60 1048.5
20260905193547 26 0 3.2 12.9 0.00 0.00 0.00 59 615.2
20260905192545 26 0 3.2 12.9 0.00 0.00 0.00 59 922.1
20260905192510 26 0 3.2 11.3 0.00 0.00 0.00 60 865.2
20260905190539 27 95 3.2 9.7 0.00 0.00 0.00 64 1125.0
20260905190009 27 95 0.0 9.7 0.00 0.00 0.00 69 1084.2
20260905184537 27 95 0.0 0.0 0.00 0.00 0.00 71 988.4
20260905183533 27 95 0.0 0.0 0.00 0.00 0.00 70 1016.9
20260905182532 27 95 0.0 4.8 0.00 0.00 0.00 68 515.2
20260905182005 27 95 0.0 6.4 0.00 0.00 0.00 67 726.1
20260905180530 27 95 3.2 11.3 0.00 0.00 0.00 67 1066.0
20260905175523 28 104 1.6 6.4 0.00 0.00 0.00 64 481.2
20260905175000 28 103 0.0 0.0 0.00 0.00 0.00 61 898.4
20260905173523 29 103 0.0 0.0 0.00 0.00 0.00 59 584.2
20260905172523 29 103 0.0 6.4 0.00 0.00 0.00 58 460.8
20260905171518 30 103 1.6 9.7 0.00 0.00 0.00 57 1008.6
20260905170512 30 103 0.0 0.0 0.00 0.00 0.00 55 989.6
20260905165517 30 103 0.0 6.4 0.00 0.00 0.00 53 466.2
20260905164953 31 103 0.0 4.8 0.00 0.00 0.00 53 510.8
20260905163507 31 103 0.0 0.0 0.00 0.00 0.00 52 472.8
20260905163005 31 103 0.0 3.2 0.00 0.00 0.00 51 788.6
20260905161505 31 103 0.0 6.4 0.00 0.00 0.00 51 814.1
20260905160505 31 103 1.6 9.7 0.00 0.00 0.00 49 587.9
20260905155504 31 100 3.2 11.3 0.00 0.00 0.00 50 462.6
20260905155422 31 90 1.6 9.7 0.00 0.00 0.00 49 489.7
20260905153504 31 96 1.6 9.7 0.00 0.00 0.00 48 755.3
20260905152503 31 96 1.6 11.3 0.00 0.00 0.00 47 429.0
20260905151507 31 103 1.6 4.8 0.00 0.00 0.00 47 901.1
20260905150506 31 103 0.0 6.4 0.00 0.00 0.00 46 1022.1
20260905145504 31 103 1.6 6.4 0.00 0.00 0.00 45 928.1
20260905144507 31 108 1.6 9.7 0.00 0.00 0.00 46 453.9
20260905143503 31 107 1.6 9.7 0.00 0.00 0.00 47 929.7
20260905142504 31 0 1.6 11.3 0.00 0.00 0.00 47 452.5
20260905141505 31 0 0.0 4.8 0.00 0.00 0.00 49 622.9
20260905140458 31 0 3.2 11.3 0.00 0.00 0.00 47 434.7
20260905135459 31 117 1.6 12.9 0.00 0.00 0.00 47 557.9
20260905134456 31 148 1.6 11.3 0.00 0.00 0.00 46 535.6
20260905134430 31 114 0.0 9.7 0.00 0.00 0.00 48 1077.4
20260905132448 31 122 3.2 14.5 0.00 0.00 0.00 46 562.4
20260905131445 31 126 1.6 11.3 0.00 0.00 0.00 46 935.6
20260905130447 31 91 4.8 11.3 0.00 0.00 0.00 45 1055.4
20260905125929 31 114 1.6 12.9 0.00 0.00 0.00 44 1085.5
20260905124440 31 132 1.6 9.7 0.00 0.00 0.00 44 568.2
20260905123440 31 137 0.0 8.0 0.00 0.00 0.00 44 430.4
20260905122444 31 155 1.6 9.7 0.00 0.00 0.00 43 463.9
20260905121433 31 24 1.6 6.4 0.00 0.00 0.00 42 522.8
20260905120432 30 310 0.0 6.4 0.00 0.00 0.00 44 1025.5
20260905115431 30 321 1.6 8.0 0.00 0.00 0.00 45 451.2
20260905114432 30 336 0.0 8.0 0.00 0.00 0.00 44 433.7
20260905113434 30 342 0.0 6.4 0.00 0.00 0.00 44 963.9
20260905112432 30 46 0.0 3.2 0.00 0.00 0.00 46 796.9
20260905111431 29 45 0.0 4.8 0.00 0.00 0.00 44 832.5
20260905110441 30 61 1.6 6.4 0.00 0.00 0.00 43 514.1
20260905105905 30 0 1.6 6.4 0.00 0.00 0.00 44 447.6
20260905104426 30 55 1.6 9.7 0.00 0.00 0.00 44 629.7
20260905103428 29 105 1.6 6.4 0.00 0.00 0.00 46 561.1
20260905102422 29 111 0.0 1.6 0.00 0.00 0.00 48 671.9
20260905101421 28 111 0.0 0.0 0.00 0.00 0.00 49 1015.9
20260905100421 28 111 0.0 0.0 0.00 0.00 0.00 50 415.0
20260905095412 28 111 0.0 0.0 0.00 0.00 0.00 49 1103.8
20260905094854 28 111 0.0 0.0 0.00 0.00 0.00 49 626.7
20260905093411 28 111 0.0 3.2 0.00 0.00 0.00 51 825.1
20260905092840 28 111 1.6 4.8 0.00 0.00 0.00 50 733.1
20260905091406 27 111 0.0 6.4 0.00 0.00 0.00 51 790.2
20260905090406 27 111 0.0 6.4 0.00 0.00 0.00 51 508.1
20260905085401 28 111 0.0 4.8 0.00 0.00 0.00 52 675.8
20260905084358 28 111 0.0 0.0 0.00 0.00 0.00 52 438.0
20260905083359 28 111 0.0 0.0 0.00 0.00 0.00 55 1186.2
20260905082356 27 111 1.6 11.3 0.00 0.00 0.00 54 672.3
20260905081354 28 109 0.0 4.8 0.00 0.00 0.00 56 1001.7
20260905080356 27 109 0.0 4.8 0.00 0.00 0.00 57 905.6
20260905075349 26 109 3.2 9.7 0.00 0.00 0.00 59 725.2
20260905074348 26 101 1.6 6.4 0.00 0.00 0.00 63 639.2
20260905073350 26 102 1.6 9.7 0.00 0.00 0.00 65 434.5
20260905072344 25 102 1.6 6.4 0.00 0.00 0.00 69 576.7
20260905071344 25 113 1.6 9.7 0.00 0.00 0.00 72 1109.0
20260905070823 24 116 0.0 9.7 0.00 0.00 0.00 74 534.8